RISAT-2BR1

operational
NORAD ID: 44857 Int'l Des: 2019-089 Owner: ISRO Country: IN
LEOCIRCULAR

RISAT-2BR1について

説明を読み込み中...

リアルタイム位置

3D地球を読み込み中...

次回通過

高度履歴

Altitude vs Time

uPlot chart will show altitude changes over time

軌道要素

1 44857U 19089F 26061.21971184 .00005773 00000-0 44243-3 0 9995
2 44857 36.9618 26.1844 0013925 20.6472 339.4831 15.01536324341110
Epoch: Mar 2, 2026 • Age: 31 hours

現在のステータス

高度 562.2 km
速度 7.59 km/s
衛星直下点 32.20°N, 127.64°W
打ち上げ日 Dec 11, 2019
運用期間 6.2 years
タイプ other

技術仕様

分類 Payload
質量 628.00 kg
乾燥質量 628.00 kg
総質量 628.00 kg
長さ 2.00 m
直径 1.00 m
スパン 5.00 m
形状 Hex Cyl + 2 Pan + Dish
製造者 ISRO
バスタイプ TechSar
フェーズステータス In Orbit
所有者/国 ISRO/IN

大規模コンステレーション

Loading constellations...